Effective Sunday, March 17, 2024, the National Weather Service National Data Buoy Center will discontinue its Dial-A-Buoy Interactive Voice Response system. For more information, see Service Change Notice 24-06 (PDF).

Station 44009 (LLNR 168) - DELAWARE BAY 26 NM Southeast of Cape May, NJ Image indicating link to RSS feed of recent meteorological observations for station 44009


Conditions at 44009 as of
(6:40 pm EST)
2340 GMT on 03/01/2024:
     

Click on the graph icon in the table below to see a time series plot of the last five days of that observation.

5-day plot - Wind Direction Wind Direction (WDIR):ESE ( 120 deg true )
5-day plot - Wind Speed Wind Speed (WSPD): 11.7 kts
5-day plot - Wind Gust Wind Gust (GST): 13.6 kts
5-day plot - Atmospheric Pressure Atmospheric Pressure (PRES):30.57 in
5-day plot - Air Temperature Air Temperature (ATMP): 43.9 °F
5-day plot - Water Temperature Water Temperature (WTMP): 44.6 °F
5-day plot - Dew Point Dew Point (DEWP): 34.0 °F
5-day plot - Wind Chill Wind Chill (CHILL): 37.2 °F
5-day plot - Wind Speed at 10 Meters Wind Speed at 10 meters (WSPD10M): 11.7 kts
5-day plot - Wind Speed at 20 Meters Wind Speed at 20 meters (WSPD20M): 11.7 kts
5-day plot -  Wind Speed, Wind Gust and Atmospheric Pressure Combined plot of Wind Speed, Gust, and Air Pressure
Supplemental Measurements
Highest 1-minute Wind Speed
Time (EST)5-day plot - 1-Minute Wind Speed WSPD 5-day plot - 1-Minute Wind Direction WDIR
6:40 pm 11.7 kts-
Previous observations
TIME
(EST)
5-day plot - Wind Direction
WDIR
 
5-day plot - Wind Speed
WSPD
kts
5-day plot - Wind Gust
GST
kts
5-day plot - Wave Height
WVHT
ft
5-day plot - Dominant Wave Period
DPD
sec
5-day plot - Average Wave Period
APD
sec
5-day plot - Mean Wave Direction
MWD
 
5-day plot - Atmospheric Pressure
PRES
in
5-day plot - Pressure Tendency
PTDY
in
5-day plot - Air Temperature
ATMP
°F
5-day plot - Water Temperature
WTMP
°F
5-day plot - Dew Point
DEWP
°F
5-day plot - Salinity
SAL
psu
5-day plot - Visibility
VIS
nmi
5-day plot - Tide (above MLLW)
TIDE
ft
2024-03-01 06:10 pmESE 9.7 11.7 1.6-3.7ESE30.57- 43.7 44.6 32.7---
2024-03-01 06:00 pmESE 9.7 11.7----30.57-0.02 43.5 44.6 32.5---
2024-03-01 05:50 pmESE 9.7 11.7 1.6 93.6 E30.58- 43.5 44.6 32.2---
2024-03-01 05:40 pmESE 9.7 11.7----30.57- 43.5 44.6 32.5---
2024-03-01 05:30 pmESE 9.7 11.7----30.57- 43.3 44.6 32.5---
2024-03-01 05:20 pmESE 9.7 9.7 1.6 103.6ESE30.58- 43.3 44.6 32.5---
2024-03-01 05:10 pmESE 7.8 9.7 1.6-3.6ESE30.58- 43.3 44.6 32.2---
2024-03-01 05:00 pm SE 7.8 9.7----30.58-0.04 43.3 44.6 32.2---
2024-03-01 04:50 pmESE 7.8 9.7 1.6 103.5 S30.58- 43.2 44.6 32.4---
2024-03-01 04:40 pm SE 7.8 9.7----30.58- 43.2 44.6 31.5---
2024-03-01 04:30 pm SE 7.8 9.7----30.58- 43.2 44.6 31.5---
2024-03-01 04:20 pm SE 7.8 11.7 1.6 33.4 E30.58- 43.2 44.6 31.5---
2024-03-01 04:10 pm SE 9.7 11.7 1.6-3.4 E30.58- 43.2 44.8 31.5---
2024-03-01 04:00 pm SE 9.7 11.7----30.59-0.04 43.2 44.8 31.3---
2024-03-01 03:50 pm SE 9.7 11.7 1.6 33.4ENE30.59- 43.3 44.8 31.6---
2024-03-01 03:40 pm SE 9.7 13.6----30.59- 43.5 44.8 32.2---
2024-03-01 03:30 pm SE 9.7 13.6----30.59- 43.5 44.8 31.1---
2024-03-01 03:20 pm SE 9.7 11.7 1.6 33.5 E30.59- 43.3 44.8 30.6---
2024-03-01 03:10 pm SE 9.7 11.7 1.6-3.5 E30.59- 43.3 44.8 30.0---
2024-03-01 03:00 pm SE 9.7 13.6----30.58-0.05 43.3- 29.3---
2024-03-01 02:50 pm SE 9.7 11.7 1.6 93.5 SE30.59- 43.2 44.8 30.0---
2024-03-01 02:40 pm SE 9.7 11.7----30.60- 43.2 44.8 29.8---
2024-03-01 02:30 pm SE 9.7 11.7----30.60- 43.2 44.8 29.1---
2024-03-01 02:20 pm SE 9.7 11.7 1.6 103.6ESE30.61- 43.2 44.8 30.7---
2024-03-01 02:10 pm SE 9.7 13.6 1.6-3.6ESE30.61- 43.0 44.8 29.1---
2024-03-01 02:00 pm SE 9.7 11.7----30.61-0.05 43.0 44.8 29.1---
2024-03-01 01:50 pm SE 9.7 11.7 1.6 103.5WSW30.62- 43.0 44.8 29.8---
2024-03-01 01:40 pm SE 9.7 11.7----30.62- 42.8 44.8 29.3---
2024-03-01 01:30 pm SE 9.7 11.7----30.63- 42.6 44.8 28.8---
2024-03-01 01:20 pm SE 9.7 11.7 1.6 43.3NNE30.63- 42.6 44.8 28.8---
2024-03-01 01:10 pmESE 9.7 11.7 1.6-3.3NNE30.63- 42.4 44.6 29.3---
2024-03-01 01:00 pmESE 9.7 11.7----30.63-0.03 42.3 44.6 29.1---
2024-03-01 12:50 pmESE 9.7 11.7 2.0 103.6 SE30.62- 42.3 44.8 29.5---
2024-03-01 12:40 pmESE 9.7 13.6----30.63- 42.1 44.8 29.3---
2024-03-01 12:30 pmESE 9.7 13.6----30.62- 41.9 44.8 28.6---
2024-03-01 12:20 pmESE 9.7 11.7 2.0 33.7NNE30.63- 41.9 44.8 28.8---
2024-03-01 12:10 pm E 9.7 13.6 2.0-3.7NNE30.64- 41.7 44.8 28.6---
2024-03-01 12:00 pm E 11.7 13.6----30.64+0.00 41.7 44.6 28.0---
2024-03-01 11:50 am E 9.7 13.6 2.0 43.8 NE30.64- 41.5 44.6 27.9---
2024-03-01 11:40 am E 9.7 13.6----30.64- 41.5 44.6 27.3---
2024-03-01 11:30 am E 11.7 13.6----30.64- 41.4 44.6 26.2---
2024-03-01 11:20 am E 9.7 13.6 2.3 43.9NNE30.65- 41.4 44.6 26.8---
2024-03-01 11:10 am E 9.7 11.7 2.3-3.9NNE30.66- 41.4 44.6 26.1---
2024-03-01 11:00 am E 9.7 11.7----30.67+0.03 41.4 44.4 25.3---
2024-03-01 10:50 am E 9.7 11.7 2.3 43.8 NE30.67- 41.4 44.4 25.7---
2024-03-01 10:40 amENE 9.7 11.7----30.67- 41.4 44.4 25.5---
2024-03-01 10:30 amENE 9.7 11.7----30.67- 41.2 44.4 24.1---
2024-03-01 10:20 amENE 9.7 11.7 2.3 43.7NNE30.67- 41.2 44.4 23.7---
2024-03-01 10:10 amENE 9.7 13.6----30.66- 41.2 44.4 22.8---
2024-03-01 10:00 amENE 11.7 13.6----30.66+0.04 41.2 44.4 23.5---
2024-03-01 09:50 amENE 11.7 13.6 2.3 53.9 NE30.66- 41.2 44.2 25.0---
2024-03-01 09:40 am NE 11.7 13.6----30.66- 41.2 44.2 24.6---
2024-03-01 09:30 am NE 11.7 13.6----30.65- 41.4 44.2 24.3---
2024-03-01 09:20 am NE 11.7 13.6 2.0 54.1 NE30.65- 41.4 44.2 25.0---
2024-03-01 09:10 am NE 9.7 13.6 2.0-4.1 NE30.64- 41.2 44.2 25.7---
2024-03-01 09:00 am NE 9.7 11.7----30.65+0.04 41.2 44.1 26.1---
2024-03-01 08:50 am NE 9.7 11.7 2.0 54.4 NE30.65- 41.4 44.1 27.3---
2024-03-01 08:40 amENE 9.7 11.7----30.65- 41.2 44.2 26.4---
2024-03-01 08:30 am NE 9.7 11.7----30.64- 41.2 44.2 26.8---
2024-03-01 08:20 am NE 9.7 11.7 1.6 94.0ESE30.65- 41.2 44.1 26.6---
2024-03-01 08:10 am NE 9.7 11.7 1.6-4.0ESE30.64- 41.2 44.1 27.0---
2024-03-01 08:00 am NE 7.8 11.7----30.64+0.06 41.4 44.1 27.5---
2024-03-01 07:50 am NE 7.8 9.7 1.6 83.9SSE30.64- 41.2 44.1 27.0---
2024-03-01 07:40 amENE 7.8 9.7----30.64- 41.2 44.1 26.6---
2024-03-01 07:30 amENE 7.8 9.7----30.64- 41.0 44.1 26.1---
2024-03-01 07:20 amENE 5.8 9.7 1.3 83.8 SE30.63- 41.0 44.1 25.7---
2024-03-01 07:10 amENE 5.8 9.7----30.63- 40.8 44.1 25.0---
2024-03-01 07:00 am NE 5.8 7.8----30.63+0.08 40.6 44.1 23.9---
2024-03-01 06:50 am NE 5.8 7.8 1.6 94.1NNE30.62- 40.6 44.1 24.3---
2024-03-01 06:40 am NE 5.8 7.8----30.62- 40.5 44.1 24.4---
2024-03-01 06:30 am NE 5.8 7.8----30.62- 40.5 44.1 25.0---
2024-03-01 06:20 am NE 5.8 7.8 1.6 93.9 SE30.61- 40.5 44.1 25.3---
2024-03-01 06:10 am NE 5.8 7.8----30.61- 40.5 44.1 23.4---
2024-03-01 06:00 amNNE 3.9 5.8----30.61+0.08 40.5 44.1 23.9---
2024-03-01 05:50 am NE 3.9 5.8 1.6 33.6NNW30.60- 40.5 44.1 22.1---
2024-03-01 05:40 amNNE 5.8 5.8----30.60- 40.5 44.1 22.5---
2024-03-01 05:30 amNNE 5.8 7.8----30.60- 40.5 44.1 23.7---
2024-03-01 05:20 amNNE 5.8 7.8 1.6 83.6 SE30.59- 40.6 44.1 23.7---
2024-03-01 05:10 amNNE 5.8 7.8----30.58- 40.6 44.1 23.9---
2024-03-01 05:00 amNNE 5.8 7.8----30.58+0.07 40.8 44.1 23.9---
2024-03-01 04:50 amNNE 7.8 9.7 1.6 103.5ESE30.58- 40.8 44.1 23.2---
2024-03-01 04:40 am N 7.8 9.7----30.57- 40.8 44.1 22.6---
2024-03-01 04:30 amNNE 9.7 11.7----30.56- 40.8 44.1 23.4---
2024-03-01 04:20 am N 9.7 11.7 1.6 103.6 SE30.56- 41.0 44.1 23.9---
2024-03-01 04:10 am N 9.7 9.7 1.6-3.6 SE30.56- 41.2 44.1 24.8---
2024-03-01 04:00 am N 9.7 11.7----30.55+0.05 41.2 44.1 25.2---
2024-03-01 03:50 am N 9.7 11.7 1.6 93.7ESE30.54- 41.2 44.1 25.2---
2024-03-01 03:40 am N 9.7 11.7----30.54- 41.2 44.1 24.8---
2024-03-01 03:30 am N 9.7 11.7----30.53- 41.4 44.1 24.6---
2024-03-01 03:20 am N 9.7 13.6 1.3 93.5ESE30.53- 41.5 44.1 25.3---
2024-03-01 03:10 am N 9.7 11.7 1.3-3.5ESE30.53- 41.5 44.1 25.7---
2024-03-01 03:00 am N 9.7 11.7----30.53+0.03 41.7 44.1 26.4---
2024-03-01 02:50 am N 9.7 11.7 1.6 93.6ESE30.52- 41.9 44.1 27.3---
2024-03-01 02:40 am N 9.7 11.7----30.52- 41.9 44.2 26.6---
2024-03-01 02:30 am N 9.7 11.7----30.52- 42.1 44.2 27.7---
2024-03-01 02:20 am N 9.7 11.7 1.3 93.4ENE30.51- 42.3 44.2 28.4---
2024-03-01 02:10 am N 7.8 9.7 1.3-3.4ENE30.51- 42.4 44.2 29.3---
2024-03-01 02:00 am N 9.7 11.7----30.51+0.02 42.4 44.2 30.6---
2024-03-01 01:50 amNNW 9.7 13.6 1.6 93.5ESE30.51- 42.6 44.2 30.0---
2024-03-01 01:40 amNNW 9.7 13.6----30.50- 42.6 44.2 28.6---
2024-03-01 01:30 amNNW 9.7 11.7----30.50- 42.8 44.2 28.0---
2024-03-01 01:20 am NW 9.7 11.7 1.6 83.2ESE30.50- 42.8 44.2 28.4---
2024-03-01 01:10 am NW 9.7 11.7----30.50- 42.8 44.2 29.1---
2024-03-01 01:00 am NW 9.7 11.7----30.50+0.02 42.8 44.2 30.2---
2024-03-01 12:50 am NW 9.7 13.6 1.6 93.4ESE30.49- 42.8 44.2 30.6---
2024-03-01 12:40 am NW 9.7 11.7----30.49- 42.8 44.2 30.4---
2024-03-01 12:30 amWNW 11.7 13.6----30.49- 43.0 44.2 30.6---
2024-03-01 12:20 amWNW 9.7 11.7 2.0 103.5ENE30.49- 42.8 44.2 31.8---
2024-03-01 12:10 amWNW 9.7 11.7 2.0-3.5ENE30.50- 42.8 44.4 33.3---
2024-03-01 12:00 amWNW 11.7 13.6----30.50+0.04 42.8 44.4 33.6---
2024-02-29 11:50 pm W 11.7 13.6 2.0 33.4 SW30.50- 42.8 44.4 34.0---
2024-02-29 11:40 pm W 11.7 13.6----30.50- 42.8 44.4 33.8---
2024-02-29 11:30 pm W 11.7 13.6----30.49- 42.8 44.4 33.6---
2024-02-29 11:20 pm W 11.7 13.6 2.0 103.5 E30.49- 43.0 44.4 33.6---
2024-02-29 11:10 pm W 9.7 13.6 2.0-3.5 E30.49- 43.0 44.4 34.0---
2024-02-29 11:00 pm W 11.7 13.6----30.49+0.05 43.0 44.4 33.1---
2024-02-29 10:50 pm W 11.7 13.6 2.0 103.6ESE30.48- 43.0 44.4 33.4---
2024-02-29 10:40 pm W 11.7 13.6----30.48- 43.0 44.4 33.3---
2024-02-29 10:30 pmWSW 11.7 13.6----30.48- 43.2 44.4 33.3---
2024-02-29 10:20 pmWSW 11.7 13.6 2.0 43.7 W30.48- 43.3 44.4 33.1---
2024-02-29 10:10 pmWSW 11.7 13.6----30.48- 43.5 44.4 32.9---
2024-02-29 10:00 pmWSW 11.7 13.6----30.48+0.06 43.5 44.4 32.5---
2024-02-29 09:50 pmWSW 11.7 13.6 2.3 44.0WSW30.47- 43.5 44.4 32.4---
2024-02-29 09:40 pmWSW 11.7 13.6----30.47- 43.5 44.4 30.2---
2024-02-29 09:30 pmWSW 11.7 13.6----30.47- 43.5 44.4 29.1---
2024-02-29 09:20 pmWSW 9.7 11.7 2.0 44.0WNW30.47- 43.5 44.4 29.7---
2024-02-29 09:10 pm W 7.8 11.7 2.0-4.0WNW30.47- 43.5 44.4 30.7---
2024-02-29 09:00 pm W 7.8 9.7----30.46+0.05 43.5 44.4 30.0---
2024-02-29 08:50 pm W 7.8 11.7 2.0 43.9NNW30.46- 43.7 44.4 28.9---
2024-02-29 08:40 pmWSW 7.8 9.7----30.45- 43.5 44.4 27.7---
2024-02-29 08:30 pmWSW 7.8 9.7----30.45- 43.5 44.4 28.0---
2024-02-29 08:20 pm W 7.8 9.7 2.3 33.9 W30.44- 43.5 44.4 28.9---
2024-02-29 08:10 pm W 7.8 9.7 2.3-3.9 W30.44- 43.5 44.4 27.1---
2024-02-29 08:00 pm W 7.8 9.7----30.44+0.05 43.5 44.4 28.2---
2024-02-29 07:50 pm W 9.7 11.7 2.3 43.9NNW30.44- 43.5 44.4 27.7---
2024-02-29 07:40 pm W 9.7 13.6 2.3-3.9NNW30.44- 43.3 44.4 27.7---
2024-02-29 07:30 pmWSW 11.7 13.6----30.44- 43.3 44.4 27.7---
2024-02-29 07:20 pmWSW 13.6 15.5 2.3 43.8WNW30.43- 43.3 44.4 27.7---
2024-02-29 07:10 pm W 11.7 13.6 2.3-3.8WNW30.43- 43.5 44.4 27.5---
2024-02-29 07:00 pm W 9.7 13.6----30.42+0.05 43.5 44.4 25.9---
2024-02-29 06:50 pm W 11.7 13.6 2.6 43.7NNW30.42- 43.5 44.4 26.1---

Detailed Wave Summary
for 44009 as of (6:10 pm EST)
2310 GMT on 03/01/2024:

These wave data are displayed in rounded times.

     

Click on the graph icon in the table below to see a time series plot of the last five days of that observation.

5-day plot - Significant Wave Height Significant Wave Height (WVHT): 1.6 ft
5-day plot - Swell Height Swell Height (SwH): 1.0 ft
5-day plot - Swell Period Swell Period (SwP): 10.0 sec
5-day plot - Swell Direction Swell Direction (SwD):ESE
5-day plot - Wind Wave Height Wind Wave Height (WWH): 1.3 ft
5-day plot - Wind Wave Period Wind Wave Period (WWP): 3.3 sec
5-day plot - Wind Wave Direction Wind Wave Direction (WWD):ENE
5-day plot - Average Wave Period Average Wave Period (APD): 3.7 sec
Previous observations
TIME
(EST)
5-day plot - Wave Height
WVHT
ft
5-day plot - Swell Height
SwH
ft
5-day plot - Swell Period
SwP
sec
5-day plot - Swell Direction
SwD
 
5-day plot - Wind Wave Height
WWH
ft
5-day plot - Wind Wave Period
WWP
sec
5-day plot - Wind Wave Direction
WWD
 
5-day plot - Wave Steepness
STEEPNESS
 
5-day plot - Average Wave Period
APD
sec
2024-03-01 05:40 pm 1.6 1.0 9.1 E 1.3 3.3 ENE N/A 3.6
2024-03-01 05:10 pm 1.6 1.0 10.0ESE 1.3 2.9 ESE N/A 3.6
2024-03-01 04:40 pm 1.6 1.0 10.0 S 1.3 2.9 E N/A 3.5
2024-03-01 04:10 pm 1.6 1.0 9.1 SE 1.3 3.0 E N/A 3.4
2024-03-01 03:40 pm 1.6 1.0 9.1SSE 1.3 3.1 ENE N/A 3.4
2024-03-01 03:10 pm 1.6 1.0 9.1ENE 1.3 2.9 E N/A 3.5
2024-03-01 02:40 pm 1.6 1.0 9.1 SE 1.3 3.0 NE N/A 3.5
2024-03-01 02:10 pm 1.6 1.0 10.0ESE 1.3 3.3 NNE N/A 3.6
2024-03-01 01:40 pm 1.6 1.0 10.0WSW 1.3 3.6 NNE N/A 3.5
2024-03-01 01:10 pm 1.6 0.7 8.3 E 1.6 3.8 NNE N/A 3.3
2024-03-01 12:40 pm 2.0 1.0 10.0 SE 1.6 4.0 NNE N/A 3.6
2024-03-01 12:10 pm 2.0 1.0 9.1WSW 1.6 3.4 NNE N/A 3.7
2024-03-01 11:40 am 2.0 1.0 10.0 E 1.6 4.3 NE N/A 3.8
2024-03-01 11:10 am 2.3 1.3 10.0ESE 2.0 3.8 NNE N/A 3.9
2024-03-01 10:40 am 2.3 1.3 4.8 NE 2.0 4.3 NE N/A 3.8
2024-03-01 10:10 am 2.3 1.0 10.0 NE 2.0 4.3 NNE N/A 3.7
2024-03-01 09:40 am 2.3 1.0 9.1 SE 2.0 4.8 NE N/A 3.9
2024-03-01 09:10 am 2.0 1.3 7.7NNE 1.6 4.8 NE N/A 4.1
2024-03-01 08:40 am 2.0 1.3 9.1ESE 1.3 4.8 NE N/A 4.4
2024-03-01 08:10 am 1.6 1.0 9.1ESE 1.0 3.4 N N/A 4.0
2024-03-01 07:40 am 1.6 1.0 7.7SSE 1.0 2.9 NNW N/A 3.9
2024-03-01 07:10 am 1.3 1.0 8.3 SE 1.0 2.9 NNW N/A 3.8
2024-03-01 06:40 am 1.6 1.3 9.1NNE 1.0 2.9 N N/A 4.1
2024-03-01 06:10 am 1.6 1.3 9.1 SE 1.0 2.9 N N/A 3.9
2024-03-01 05:40 am 1.6 1.0 10.0 SE 1.3 2.9 NNW N/A 3.6
2024-03-01 05:10 am 1.6 1.0 7.7 SE 1.3 2.9 N N/A 3.6
2024-03-01 04:40 am 1.6 1.0 10.0ESE 1.3 2.9- N/A 3.5
2024-03-01 04:10 am 1.6 1.0 10.0 SE 1.3 2.7 N N/A 3.6
2024-03-01 03:40 am 1.6 1.3 9.1ESE 1.0 2.6 N N/A 3.7
2024-03-01 03:10 am 1.3 1.0 9.1ESE 1.0 2.5 NW N/A 3.5
2024-03-01 02:40 am 1.6 1.0 9.1ESE 1.0 2.5 WNW N/A 3.6
2024-03-01 02:10 am 1.3 1.0 9.1ENE 1.0 2.5 NW N/A 3.4
2024-03-01 01:40 am 1.6 1.0 9.1ESE 1.3 3.0 WSW N/A 3.5
2024-03-01 01:10 am 1.6 1.0 8.3ESE 1.3 3.0 SW N/A 3.2
2024-03-01 12:40 am 1.6 1.0 9.1ESE 1.3 2.7 WSW N/A 3.4
2024-03-01 12:10 am 2.0 1.0 10.0ENE 1.3 2.9 SW N/A 3.5
2024-02-29 11:40 pm 2.0 1.0 8.3 NE 1.6 3.0 SW N/A 3.4
2024-02-29 11:10 pm 2.0 1.0 10.0 E 1.6 2.9 SW N/A 3.5
2024-02-29 10:40 pm 2.0 1.0 10.0ESE 1.6 3.6 W N/A 3.6
2024-02-29 10:10 pm 2.0 1.0 10.0 E 1.6 4.0 W N/A 3.7
2024-02-29 09:40 pm 2.3 1.3 10.0 E 1.6 4.0 WSW N/A 4.0
2024-02-29 09:10 pm 2.0 1.3 9.1ESE 1.6 4.0 WNW N/A 4.0
2024-02-29 08:40 pm 2.0 1.3 9.1ESE 1.3 4.0 NNW N/A 3.9
2024-02-29 08:10 pm 2.3 1.6 8.3ESE 1.6 3.2 W N/A 3.9
2024-02-29 07:40 pm 2.3 1.3 10.0 E 2.0 4.0 NNW N/A 3.9
2024-02-29 07:10 pm 2.3 1.3 9.1ESE 2.0 3.6 WNW N/A 3.8

Plot of wave energy versus frequency (and period)